[[{"header":{"parameterUnit":"m.s-1","parameterCategory":2,"la1":30.2991,"la2":30.254,"lo1":-89.0895,"lo2":-89.0444,"dy":0.0017,"dx":0.0017,"nx":28,"ny":28,"refTime":"2025-03-02T09:00:00:Z","depth":"0","parameterNumber":2,"parameterNumberName":"U-component_of_CURRENTS"},"data":[0,0,0,0,0,0,0,0,0,0,0,0,0,0,0,0,0,0,0,0,0,0,0,0,0,0,0,0,0,0,0,0,0,0,0,0,0,0,0,0,0,0,0,0,0,0,0,0,0,0,0,0,0,0,0,0,0,0,-0.2469,-0.2471,0,-0.2614,-0.2616,-0.2617,-0.2613,-0.2612,-0.261,-0.2608,-0.2643,-0.2646,-0.2648,0,0,0,0,0,0,0,0,0,0,0,0,0,-0.2288,-0.229,-0.2469,-0.2471,-0.2473,-0.2614,-0.2616,-0.2617,-0.2614,-0.2611,-0.2609,-0.2607,-0.2642,-0.2645,-0.2648,0,0,0,0,0,0,0,0,0,0,0,0,0,-0.239,-0.2291,-0.2469,-0.249,-0.2494,-0.2614,-0.2616,-0.2618,-0.2614,-0.2611,-0.2609,-0.2606,-0.2641,-0.2645,-0.2649,-0.2723,0,0,-0.266,-0.2662,0,0,0,0,0,0,0,0,-0.2384,-0.2396,-0.2485,-0.2489,-0.2493,-0.2596,-0.2565,-0.2649,-0.2615,-0.2565,-0.2608,-0.2605,-0.2621,-0.2626,-0.2656,-0.2725,-0.2726,-0.2661,-0.2663,-0.2664,-0.2666,0,0,0,0,0,0,0,-0.2377,-0.2391,-0.2523,-0.2488,-0.2493,-0.2527,-0.2538,-0.2581,-0.2601,-0.2569,-0.257,-0.2592,-0.2622,-0.2653,-0.2657,-0.2727,-0.266,-0.2664,-0.2666,-0.2668,-0.2803,-0.2804,0,0,0,0,0,0,-0.2363,-0.2384,-0.2519,-0.2528,-0.2435,-0.2532,-0.2544,-0.2563,-0.2603,-0.2609,-0.2594,-0.2591,-0.2648,-0.2653,-0.2658,-0.2695,-0.2664,-0.2668,-0.267,-0.2802,-0.2803,-0.2805,0,0,0,0,0,0,-0.2359,-0.2374,-0.2513,-0.2461,-0.2482,-0.2538,-0.256,-0.2567,-0.2591,-0.2624,-0.2626,-0.2609,-0.2646,-0.2653,-0.2692,-0.2697,-0.267,-0.2673,-0.28,-0.2802,-0.2804,-0.2802,0,0,0,0,0,0,-0.2353,-0.2371,-0.2376,-0.2461,-0.2484,-0.2576,-0.2563,-0.2572,-0.2611,-0.2608,-0.2638,-0.2639,-0.2644,-0.2687,-0.2696,-0.2702,-0.2676,-0.2799,-0.2801,-0.2804,-0.28,-0.2803,-0.2806,0,0,0,0,0,-0.2346,-0.2365,-0.2375,-0.2391,-0.249,-0.2577,-0.2593,-0.2622,-0.2613,-0.2632,-0.2649,-0.2637,-0.2708,-0.2692,-0.2702,-0.2709,-0.2797,-0.28,-0.2803,-0.2799,-0.2803,-0.2806,0,0,0,0,0,0,-0.2297,-0.237,-0.2381,-0.2423,-0.249,-0.2577,-0.2597,-0.2628,-0.2663,-0.2652,-0.2668,-0.2672,-0.2706,-0.272,-0.2701,-0.2757,-0.2747,-0.2752,-0.274,-0.2744,-0.2747,-0.2739,-0.2679,0,0,0,0,0,-0.229,-0.2312,-0.2398,-0.2431,-0.2459,-0.2529,-0.2566,-0.2598,-0.2647,-0.266,-0.2684,-0.2706,-0.2735,-0.2745,-0.2776,-0.2819,-0.2798,-0.2828,-0.2831,-0.2833,-0.2835,-0.2829,-0.2831,-0.2815,-0.2815,-0.2815,0,0,-0.2282,-0.2324,-0.2338,-0.242,-0.2467,-0.2533,-0.2543,-0.2606,-0.2653,-0.266,-0.2709,-0.2725,-0.2751,-0.2788,-0.2804,-0.2794,-0.282,-0.2837,-0.2839,-0.284,-0.2832,-0.2834,-0.2835,-0.2817,-0.2816,-0.2816,0,0,-0.2291,-0.2312,-0.234,-0.2402,-0.2482,-0.253,-0.2548,-0.2637,-0.2655,-0.2723,-0.2727,-0.2747,-0.2806,-0.2817,-0.2831,-0.2877,-0.2841,-0.2883,-0.2888,-0.2882,-0.2882,-0.2882,-0.2819,-0.2814,-0.2879,-0.2879,-0.2879,0,-0.2277,-0.2332,-0.2365,-0.2425,-0.2476,-0.2527,-0.259,-0.2634,-0.2724,-0.2739,-0.2731,-0.2802,-0.2819,-0.2854,-0.2863,-0.2881,-0.2853,-0.2866,-0.2882,-0.2883,-0.2883,-0.2818,-0.2812,-0.2879,-0.2879,-0.2879,-0.2879,0,-0.2324,-0.2373,-0.2398,-0.2478,-0.2534,-0.2598,-0.2669,-0.2707,-0.273,-0.2771,-0.2807,-0.2832,-0.2864,-0.2873,-0.2883,-0.2899,-0.2867,-0.2887,-0.2864,-0.2884,-0.2814,-0.2808,-0.288,-0.288,-0.288,-0.288,0,0,-0.2285,-0.2404,-0.2415,-0.2462,-0.257,-0.2623,-0.2684,-0.2754,-0.2781,-0.2827,-0.2853,-0.2894,-0.2888,-0.2905,-0.2911,-0.2905,-0.2871,-0.2895,-0.2895,-0.2814,-0.2809,-0.278,-0.277,-0.289,-0.289,-0.289,-0.2744,0,-0.2313,-0.2414,-0.2473,-0.2571,-0.263,-0.2694,-0.2749,-0.2811,-0.284,-0.2873,-0.2876,-0.2906,-0.2906,-0.291,-0.2906,-0.2898,-0.2862,-0.2905,-0.2818,-0.2814,-0.2773,-0.2766,-0.2759,-0.263,-0.2738,-0.2737,-0.2736,0,-0.2343,-0.2408,-0.2499,-0.2614,-0.2642,-0.2701,-0.2772,-0.2834,-0.2881,-0.29,-0.2913,-0.2921,-0.2924,-0.2918,-0.2876,-0.2902,-0.2851,-0.2826,-0.2821,-0.2795,-0.2776,-0.2638,-0.2614,-0.2613,-0.2726,-0.2727,-0.2728,0,-0.2287,-0.2426,-0.2486,-0.2535,-0.2668,-0.2699,-0.2758,-0.2826,-0.2868,-0.2902,-0.2923,-0.2925,-0.2918,-0.2884,-0.2832,-0.2854,-0.2761,-0.2785,-0.2692,-0.2687,-0.2666,-0.266,-0.2622,-0.2731,-0.2731,-0.2731,-0.2732,0,-0.2291,-0.2345,-0.2462,-0.2499,-0.2569,-0.2667,-0.2724,-0.2779,-0.2848,-0.2884,-0.2921,-0.2927,-0.2914,-0.2867,-0.2817,-0.2724,-0.274,-0.2681,-0.2658,-0.2661,-0.2657,-0.2645,-0.2671,-0.2726,-0.2727,-0.2728,-0.2729,0,-0.2219,-0.2303,-0.2378,-0.2502,-0.2543,-0.2581,-0.2708,-0.2745,-0.2823,-0.2865,-0.2876,-0.2913,-0.286,-0.2814,-0.2735,-0.2695,-0.2584,-0.257,-0.2545,-0.2524,-0.2474,-0.2501,-0.2368,-0.2306,-0.2457,-0.2456,-0.2455,0,-0.2191,-0.2219,-0.2342,-0.2382,-0.2435,-0.2518,-0.2575,-0.2699,-0.2743,-0.2845,-0.285,-0.2836,-0.2811,-0.2685,-0.2626,-0.2514,-0.2486,-0.2417,-0.248,-0.246,-0.2473,-0.2434,-0.2388,-0.2421,-0.2419,-0.2418,-0.2417,0,-0.2121,-0.2152,-0.2205,-0.2276,-0.234,-0.2426,-0.2515,-0.2556,-0.2687,-0.2737,-0.2765,-0.276,-0.2709,-0.263,-0.2513,-0.2435,-0.2403,-0.2391,-0.2394,-0.2461,-0.2393,-0.2326,-0.2488,-0.2407,-0.2408,-0.2409,-0.241,-0.241,-0.2042,-0.2047,-0.2095,-0.2151,-0.2227,-0.2282,-0.2291,-0.2404,-0.2457,-0.2521,-0.2621,-0.2646,-0.2659,-0.2531,-0.2444,-0.2347,-0.2319,-0.2298,-0.2326,-0.2281,-0.2254,-0.2368,-0.2266,-0.2266,-0.2267,-0.2267,-0.2267,0,-0.1929,-0.1935,-0.1973,-0.2017,-0.2023,-0.212,-0.2205,-0.2181,-0.2183,-0.2367,-0.241,-0.2573,-0.2516,-0.2508,-0.2452,-0.2343,-0.2247,-0.2246,-0.2219,-0.2171,-0.2295,-0.2333,-0.2214,-0.2214,-0.2214,-0.2214,-0.2214,-0.2214,-0.1865,-0.1832,-0.1838,-0.1784,-0.1814,-0.1776,-0.1786,-0.18,-0.1897,-0.2035,-0.2232,-0.2423,-0.2505,-0.2633,-0.2505,-0.2372,-0.2271,-0.2179,-0.2129,-0.229,-0.2298,-0.2306,-0.2346,-0.2232,-0.2233,-0.1954,-0.1953,-0.1951]},{"header":{"parameterUnit":"m.s-1","parameterCategory":2,"la1":30.2991,"la2":30.254,"lo1":-89.0895,"lo2":-89.0444,"dy":0.0017,"dx":0.0017,"nx":28,"ny":28,"refTime":"2025-03-02T09:00:00:Z","depth":"0","parameterNumber":3,"parameterNumberName":"V-component_of_CURRENTS"},"data":[0,0,0,0,0,0,0,0,0,0,0,0,0,0,0,0,0,0,0,0,0,0,0,0,0,0,0,0,0,0,0,0,0,0,0,0,0,0,0,0,0,0,0,0,0,0,0,0,0,0,0,0,0,0,0,0,0,0,-0.0241,-0.024,0,-0.0196,-0.0196,-0.0195,-0.0143,-0.0142,-0.0141,-0.0141,-0.0073,-0.0071,-0.007,0,0,0,0,0,0,0,0,0,0,0,0,0,-0.0265,-0.0265,-0.0241,-0.024,-0.024,-0.0196,-0.0196,-0.0195,-0.0143,-0.0142,-0.0141,-0.014,-0.0073,-0.0072,-0.007,0,0,0,0,0,0,0,0,0,0,0,0,0,-0.024,-0.0265,-0.0241,-0.021,-0.0206,-0.0197,-0.0196,-0.0195,-0.0143,-0.0142,-0.0141,-0.014,-0.0073,-0.0072,-0.007,-0.008,0,0,-0.0065,-0.0064,0,0,0,0,0,0,0,0,-0.0241,-0.0239,-0.0215,-0.0212,-0.0208,-0.0175,-0.0179,-0.0156,-0.0143,-0.0166,-0.0141,-0.0139,-0.0106,-0.0102,-0.0094,-0.0077,-0.0074,-0.0065,-0.0063,-0.0063,-0.0062,0,0,0,0,0,0,0,-0.0243,-0.024,-0.0222,-0.0214,-0.021,-0.0192,-0.0188,-0.0174,-0.0141,-0.0164,-0.016,-0.0157,-0.0104,-0.0096,-0.0092,-0.0073,-0.0065,-0.0063,-0.0062,-0.0061,-0.0036,-0.0036,0,0,0,0,0,0,-0.0253,-0.0242,-0.0223,-0.0221,-0.0224,-0.0193,-0.0188,-0.0186,-0.0142,-0.0134,-0.0158,-0.0155,-0.01,-0.0094,-0.009,-0.0089,-0.0063,-0.0061,-0.006,-0.0035,-0.0036,-0.0036,0,0,0,0,0,0,-0.0254,-0.0252,-0.0225,-0.0231,-0.0227,-0.0194,-0.0192,-0.0186,-0.0175,-0.0138,-0.013,-0.0154,-0.0099,-0.0092,-0.0077,-0.0087,-0.006,-0.0059,-0.0035,-0.0035,-0.0036,-0.0095,0,0,0,0,0,0,-0.0255,-0.0252,-0.0256,-0.0232,-0.0227,-0.023,-0.0193,-0.0185,-0.0175,-0.0171,-0.0132,-0.0125,-0.0097,-0.008,-0.0075,-0.0084,-0.0057,-0.0034,-0.0035,-0.0036,-0.0092,-0.0097,-0.0102,0,0,0,0,0,-0.0256,-0.0273,-0.0257,-0.0254,-0.0233,-0.0231,-0.0227,-0.0199,-0.0177,-0.0183,-0.0149,-0.0126,-0.0081,-0.0079,-0.0073,-0.0082,-0.0034,-0.0035,-0.0036,-0.009,-0.0096,-0.0101,0,0,0,0,0,0,-0.0289,-0.0269,-0.025,-0.026,-0.0249,-0.0223,-0.0227,-0.0205,-0.0184,-0.0176,-0.0133,-0.0125,-0.0116,-0.0091,-0.0091,-0.0075,-0.0053,-0.0053,-0.0096,-0.0101,-0.0106,-0.0108,-0.0056,0,0,0,0,0,-0.0298,-0.0301,-0.028,-0.0288,-0.0285,-0.0255,-0.025,-0.0232,-0.021,-0.0199,-0.0171,-0.0139,-0.0117,-0.0103,-0.0085,-0.0079,-0.0039,-0.0079,-0.0083,-0.0088,-0.0085,-0.0035,-0.0035,-0.0039,-0.0039,-0.0039,0,0,-0.0311,-0.0302,-0.0303,-0.0294,-0.028,-0.0289,-0.0249,-0.025,-0.0249,-0.0196,-0.0188,-0.016,-0.012,-0.0112,-0.0105,-0.0091,-0.0067,-0.0089,-0.0092,-0.0087,-0.0036,-0.0035,-0.0035,-0.0039,-0.0039,-0.0039,0,0,-0.0353,-0.0334,-0.0354,-0.035,-0.0339,-0.0318,-0.0321,-0.0299,-0.0281,-0.0273,-0.0231,-0.0206,-0.0179,-0.0148,-0.0128,-0.0147,-0.0097,-0.0142,-0.0162,-0.0115,-0.0114,-0.0112,-0.0065,-0.0059,-0.0139,-0.0139,-0.014,0,-0.037,-0.0392,-0.0361,-0.0383,-0.0382,-0.0335,-0.0357,-0.0336,-0.0311,-0.0293,-0.028,-0.0221,-0.0195,-0.0163,-0.0169,-0.0158,-0.0119,-0.0147,-0.012,-0.0118,-0.0116,-0.0068,-0.006,-0.0142,-0.0142,-0.0142,-0.0141,0,-0.0427,-0.0444,-0.0459,-0.0462,-0.0455,-0.047,-0.0435,-0.0422,-0.039,-0.036,-0.0327,-0.0284,-0.0242,-0.0233,-0.0208,-0.0177,-0.0152,-0.0136,-0.0107,-0.0119,-0.0067,-0.0059,-0.0147,-0.0146,-0.0145,-0.0144,0,0,-0.0463,-0.0494,-0.0498,-0.0515,-0.0498,-0.0501,-0.049,-0.0465,-0.0446,-0.0412,-0.0384,-0.0345,-0.0305,-0.0279,-0.0238,-0.0196,-0.0153,-0.0162,-0.0158,-0.0117,-0.0041,-0.0011,0.0002,-0.0128,-0.0127,-0.0126,-0.0013,0,-0.0517,-0.0583,-0.0569,-0.0612,-0.0641,-0.059,-0.0581,-0.0544,-0.0497,-0.0458,-0.0392,-0.0358,-0.0325,-0.0303,-0.0255,-0.0173,-0.0131,-0.0185,-0.0033,-0.0029,-0.0002,0.0013,0.0029,0.0132,-0.0004,-0.0002,-0.0001,0,-0.0574,-0.0613,-0.0675,-0.069,-0.0692,-0.07,-0.0658,-0.0645,-0.0567,-0.0527,-0.0464,-0.0404,-0.0331,-0.0309,-0.0169,-0.0201,-0.0131,-0.0069,-0.0063,-0.0007,0.0018,0.0124,0.0154,0.0307,0.0013,0.0012,0.0011,0,-0.0624,-0.0677,-0.0729,-0.0739,-0.0749,-0.075,-0.0736,-0.067,-0.0648,-0.0565,-0.0527,-0.043,-0.0369,-0.027,-0.014,-0.0151,0.0019,0.002,0.0113,0.0116,0.0174,0.018,0.037,0.0106,0.0106,0.0106,0.0106,0,-0.0685,-0.0726,-0.0763,-0.0797,-0.084,-0.0809,-0.0816,-0.0778,-0.0712,-0.0676,-0.0569,-0.0507,-0.0356,-0.0236,-0.0136,0.0029,0.0026,0.0119,0.0151,0.0153,0.0155,0.0326,0.0391,0.011,0.0109,0.0108,0.0108,0,-0.0732,-0.076,-0.083,-0.0865,-0.0875,-0.0903,-0.0891,-0.0884,-0.0802,-0.0747,-0.0721,-0.0554,-0.0391,-0.0237,-0.0056,0.0042,0.0269,0.0231,0.0224,0.0253,0.0467,0.0527,0.074,0.0782,0.0354,0.0356,0.0357,0,-0.0764,-0.0809,-0.0889,-0.0937,-0.096,-0.0992,-0.1007,-0.0948,-0.0929,-0.0771,-0.0747,-0.0566,-0.0446,-0.0152,0.0055,0.0251,0.0343,0.0382,0.0356,0.0497,0.0588,0.062,0.0641,0.0412,0.0414,0.0415,0.0416,0,-0.0825,-0.0853,-0.0911,-0.1016,-0.1064,-0.1105,-0.1115,-0.1115,-0.1016,-0.0948,-0.0811,-0.0699,-0.0379,-0.0123,0.0155,0.0272,0.0489,0.0415,0.0573,0.0664,0.0702,0.0751,0.0319,0.0428,0.0427,0.0426,0.0425,0.0425,-0.086,-0.0917,-0.0997,-0.1086,-0.1148,-0.1197,-0.1224,-0.1209,-0.1175,-0.107,-0.0915,-0.074,-0.0286,0.0115,0.0271,0.064,0.0596,0.0733,0.0799,0.0822,0.0855,0.0446,0.0579,0.0578,0.0578,0.0578,0.0578,0,-0.0903,-0.0965,-0.1059,-0.116,-0.1228,-0.1243,-0.1276,-0.1283,-0.1256,-0.1165,-0.1043,-0.0582,-0.0152,0.0266,0.0826,0.1024,0.103,0.112,0.1182,0.1183,0.0846,0.084,0.1022,0.1021,0.1021,0.1021,0.1021,0.1021,-0.0929,-0.1023,-0.1073,-0.1199,-0.1263,-0.1333,-0.1355,-0.1358,-0.1315,-0.1175,-0.0966,-0.0798,-0.0091,0.0899,0.1421,0.1446,0.1575,0.1571,0.1633,0.1427,0.1396,0.1366,0.1378,0.1669,0.167,0.1925,0.1929,0.1931]}],[{"header":{"parameterUnit":"m.s-1","parameterCategory":2,"la1":30.2991,"la2":30.254,"lo1":-89.0895,"lo2":-89.0444,"dy":0.0017,"dx":0.0017,"nx":28,"ny":28,"refTime":"2025-03-02T09:00:00:Z","depth":"2","parameterNumber":2,"parameterNumberName":"U-component_of_CURRENTS"},"data":[0,0,0,0,0,0,0,0,0,0,0,0,0,0,0,0,0,0,0,0,0,0,0,0,0,0,0,0,0,0,0,0,0,0,0,0,0,0,0,0,0,0,0,0,0,0,0,0,0,0,0,0,0,0,0,0,0,0,-0.2289,-0.229,0,-0.2436,-0.2437,-0.2439,-0.2458,-0.2456,-0.2455,-0.2453,-0.2511,-0.2514,-0.2517,0,0,0,0,0,0,0,0,0,0,0,0,0,-0.2136,-0.2139,-0.2289,-0.229,-0.2292,-0.2435,-0.2438,-0.244,-0.2458,-0.2456,-0.2455,-0.2453,-0.251,-0.2514,-0.2517,0,0,0,0,0,0,0,0,0,0,0,0,0,-0.2236,-0.2139,-0.2288,-0.2318,-0.2322,-0.2435,-0.2438,-0.244,-0.2459,-0.2456,-0.2454,-0.2452,-0.2509,-0.2513,-0.2518,-0.259,0,0,-0.2531,-0.2533,0,0,0,0,0,0,0,0,-0.223,-0.2241,-0.2312,-0.2316,-0.2321,-0.2425,-0.2405,-0.2486,-0.2459,-0.2408,-0.2453,-0.2451,-0.2475,-0.2482,-0.2518,-0.2593,-0.2596,-0.2532,-0.2534,-0.2536,-0.2537,0,0,0,0,0,0,0,-0.2223,-0.2236,-0.2348,-0.2314,-0.2319,-0.2362,-0.2373,-0.2422,-0.2451,-0.2412,-0.2414,-0.2429,-0.2477,-0.2514,-0.2519,-0.2596,-0.2532,-0.2535,-0.2538,-0.254,-0.2697,-0.2698,0,0,0,0,0,0,-0.22,-0.2229,-0.2343,-0.2352,-0.2268,-0.2366,-0.2378,-0.2395,-0.2453,-0.246,-0.2431,-0.2429,-0.2507,-0.2514,-0.2521,-0.2571,-0.2536,-0.254,-0.2543,-0.2695,-0.2697,-0.2699,0,0,0,0,0,0,-0.2196,-0.2209,-0.2337,-0.2293,-0.2312,-0.237,-0.2389,-0.2399,-0.2431,-0.2468,-0.2473,-0.2452,-0.2506,-0.2515,-0.2562,-0.2574,-0.2542,-0.2546,-0.2693,-0.2696,-0.2698,-0.2695,0,0,0,0,0,0,-0.2191,-0.2206,-0.2213,-0.2291,-0.2313,-0.2399,-0.2392,-0.2403,-0.2444,-0.2444,-0.2489,-0.2492,-0.2505,-0.2555,-0.2566,-0.2579,-0.255,-0.2691,-0.2694,-0.2697,-0.2693,-0.2697,-0.27,0,0,0,0,0,-0.2185,-0.2204,-0.2213,-0.2227,-0.232,-0.24,-0.2416,-0.245,-0.2447,-0.247,-0.2497,-0.249,-0.258,-0.2561,-0.2573,-0.2587,-0.269,-0.2694,-0.2697,-0.2691,-0.2696,-0.27,0,0,0,0,0,0,-0.215,-0.2211,-0.2221,-0.2259,-0.2319,-0.2402,-0.2425,-0.2457,-0.2503,-0.2494,-0.252,-0.2528,-0.2572,-0.259,-0.2568,-0.2643,-0.2631,-0.2637,-0.2623,-0.2627,-0.2631,-0.2625,-0.2553,0,0,0,0,0,-0.2144,-0.2165,-0.2238,-0.2268,-0.2293,-0.2361,-0.2397,-0.2428,-0.248,-0.2498,-0.2534,-0.2567,-0.2603,-0.2619,-0.2658,-0.2709,-0.2688,-0.2725,-0.2728,-0.273,-0.2736,-0.2731,-0.2733,-0.271,-0.271,-0.271,0,0,-0.2139,-0.2175,-0.2188,-0.2261,-0.2304,-0.2368,-0.2377,-0.2434,-0.2486,-0.2498,-0.2566,-0.2587,-0.2621,-0.2669,-0.2689,-0.268,-0.2719,-0.2735,-0.2736,-0.2741,-0.2735,-0.2736,-0.2738,-0.2712,-0.2712,-0.2711,0,0,-0.2149,-0.2169,-0.2193,-0.225,-0.2319,-0.2368,-0.2383,-0.2471,-0.2497,-0.2572,-0.2584,-0.2612,-0.2685,-0.2704,-0.2723,-0.2775,-0.274,-0.2785,-0.2795,-0.279,-0.2791,-0.2792,-0.2726,-0.2721,-0.2782,-0.2782,-0.2782,0,-0.2139,-0.2188,-0.2217,-0.2271,-0.232,-0.2367,-0.2427,-0.2477,-0.2571,-0.2593,-0.2586,-0.2679,-0.2702,-0.2749,-0.2762,-0.2781,-0.2751,-0.277,-0.2791,-0.2791,-0.2792,-0.2725,-0.272,-0.2783,-0.2783,-0.2783,-0.2782,0,-0.2181,-0.2227,-0.2249,-0.2325,-0.238,-0.244,-0.2511,-0.2558,-0.2589,-0.2636,-0.2686,-0.2718,-0.2763,-0.2774,-0.2786,-0.2811,-0.2775,-0.2793,-0.277,-0.2794,-0.2722,-0.2716,-0.2783,-0.2783,-0.2783,-0.2783,0,0,-0.2148,-0.2255,-0.2265,-0.231,-0.2416,-0.2467,-0.2539,-0.2617,-0.2653,-0.2708,-0.2747,-0.28,-0.2797,-0.2819,-0.2828,-0.2824,-0.2789,-0.281,-0.2809,-0.2726,-0.2726,-0.2686,-0.2675,-0.2806,-0.2806,-0.2807,-0.2656,0,-0.2174,-0.2264,-0.2322,-0.242,-0.2474,-0.2543,-0.2611,-0.2681,-0.2721,-0.2768,-0.2777,-0.282,-0.282,-0.2828,-0.2827,-0.2817,-0.2782,-0.2826,-0.2733,-0.2729,-0.2677,-0.2671,-0.2528,-0.2383,-0.265,-0.2649,-0.2648,0,-0.2201,-0.2259,-0.2345,-0.2463,-0.2492,-0.2557,-0.2647,-0.2716,-0.278,-0.2807,-0.283,-0.2843,-0.2853,-0.2844,-0.2805,-0.283,-0.2775,-0.2748,-0.2742,-0.2708,-0.2681,-0.2415,-0.2362,-0.2639,-0.2639,-0.264,-0.2641,0,-0.2149,-0.228,-0.2337,-0.2385,-0.2519,-0.2561,-0.2629,-0.2714,-0.2766,-0.2815,-0.2841,-0.2854,-0.2848,-0.2815,-0.2759,-0.2781,-0.2684,-0.2709,-0.2604,-0.2597,-0.2461,-0.2444,-0.2656,-0.2657,-0.2657,-0.2657,-0.2658,0,-0.2154,-0.2207,-0.2315,-0.235,-0.2429,-0.253,-0.2602,-0.2671,-0.2752,-0.2795,-0.2844,-0.2852,-0.2844,-0.2795,-0.2744,-0.2642,-0.2663,-0.2595,-0.2568,-0.2453,-0.2438,-0.2668,-0.2672,-0.2652,-0.2653,-0.2654,-0.2655,0,-0.2087,-0.2163,-0.2233,-0.2357,-0.2402,-0.2446,-0.2587,-0.2633,-0.2725,-0.2773,-0.2787,-0.2832,-0.2774,-0.2732,-0.265,-0.2609,-0.2528,-0.2475,-0.2312,-0.2272,-0.2439,-0.2444,-0.2356,-0.2353,-0.2351,-0.2349,-0.2348,0,-0.2061,-0.2085,-0.2201,-0.2237,-0.2292,-0.2383,-0.2447,-0.2586,-0.2634,-0.2744,-0.2748,-0.2736,-0.2696,-0.2565,-0.2495,-0.2376,-0.2421,-0.2162,-0.2211,-0.2431,-0.2413,-0.2422,-0.243,-0.1992,-0.1988,-0.1984,-0.1981,0,-0.1996,-0.2023,-0.2071,-0.2132,-0.2199,-0.2287,-0.2385,-0.2422,-0.2563,-0.2607,-0.262,-0.2601,-0.2538,-0.2375,-0.2259,-0.2169,-0.2188,-0.2091,-0.2343,-0.2123,-0.2085,-0.207,-0.209,-0.1951,-0.1954,-0.1956,-0.1958,-0.1959,-0.1924,-0.1925,-0.1962,-0.2013,-0.2085,-0.2135,-0.2147,-0.2249,-0.2291,-0.2329,-0.2417,-0.2361,-0.2327,-0.2116,-0.1977,-0.1878,-0.2026,-0.1923,-0.1934,-0.1949,-0.1967,-0.1932,-0.1766,-0.1768,-0.1769,-0.1771,-0.1772,0,-0.1816,-0.1822,-0.185,-0.1884,-0.1882,-0.1982,-0.2058,-0.2024,-0.1997,-0.2111,-0.2115,-0.1932,-0.1854,-0.1817,-0.1663,-0.1618,-0.1595,-0.151,-0.1497,-0.1529,-0.1557,-0.1556,-0.1245,-0.1243,-0.1241,-0.1239,0,0,-0.1756,-0.1719,-0.172,-0.1656,-0.1681,-0.1639,-0.1643,-0.1623,-0.1665,-0.1621,-0.1651,-0.1823,-0.1842,-0.1583,-0.1486,-0.1356,-0.1424,-0.128,-0.171,-0.1731,-0.1757,-0.1806,-0.1842,0,0,0,0,0]},{"header":{"parameterUnit":"m.s-1","parameterCategory":2,"la1":30.2991,"la2":30.254,"lo1":-89.0895,"lo2":-89.0444,"dy":0.0017,"dx":0.0017,"nx":28,"ny":28,"refTime":"2025-03-02T09:00:00:Z","depth":"2","parameterNumber":3,"parameterNumberName":"V-component_of_CURRENTS"},"data":[0,0,0,0,0,0,0,0,0,0,0,0,0,0,0,0,0,0,0,0,0,0,0,0,0,0,0,0,0,0,0,0,0,0,0,0,0,0,0,0,0,0,0,0,0,0,0,0,0,0,0,0,0,0,0,0,0,0,-0.0159,-0.0159,0,-0.011,-0.0109,-0.0108,-0.0056,-0.0056,-0.0055,-0.0055,0.0012,0.0014,0.0015,0,0,0,0,0,0,0,0,0,0,0,0,0,-0.0188,-0.0188,-0.0159,-0.0159,-0.0158,-0.011,-0.0109,-0.0108,-0.0057,-0.0056,-0.0055,-0.0054,0.0012,0.0013,0.0015,0,0,0,0,0,0,0,0,0,0,0,0,0,-0.016,-0.0188,-0.0159,-0.0127,-0.0124,-0.011,-0.0109,-0.0108,-0.0057,-0.0056,-0.0055,-0.0054,0.0011,0.0013,0.0015,0.0007,0,0,0.0021,0.0021,0,0,0,0,0,0,0,0,-0.0161,-0.0159,-0.0133,-0.013,-0.0126,-0.0089,-0.0094,-0.0069,-0.0057,-0.0081,-0.0055,-0.0054,-0.0021,-0.0017,-0.0008,0.0011,0.0013,0.0021,0.0022,0.0023,0.0023,0,0,0,0,0,0,0,-0.0163,-0.016,-0.0139,-0.0132,-0.0128,-0.0108,-0.0103,-0.0089,-0.0056,-0.0079,-0.0076,-0.0072,-0.0019,-0.001,-0.0006,0.0014,0.0021,0.0022,0.0023,0.0024,0.0048,0.0048,0,0,0,0,0,0,-0.0174,-0.0162,-0.014,-0.0137,-0.0143,-0.0109,-0.0103,-0.0101,-0.0057,-0.0049,-0.0073,-0.007,-0.0014,-0.0009,-0.0004,-0.0008,0.0023,0.0024,0.0025,0.0049,0.0048,0.0048,0,0,0,0,0,0,-0.0175,-0.0172,-0.0142,-0.0149,-0.0144,-0.0109,-0.0107,-0.0101,-0.0091,-0.0052,-0.0044,-0.007,-0.0013,-0.0006,0.0007,-0.0005,0.0025,0.0027,0.0049,0.0049,0.0048,-0.0017,0,0,0,0,0,0,-0.0176,-0.0173,-0.0178,-0.015,-0.0144,-0.0146,-0.0108,-0.01,-0.0091,-0.0086,-0.0047,-0.004,-0.0012,0.0004,0.0009,-0.0002,0.0028,0.005,0.0049,0.0048,-0.0014,-0.0019,-0.0024,0,0,0,0,0,-0.0177,-0.0195,-0.0179,-0.0176,-0.0151,-0.0147,-0.0143,-0.0113,-0.0092,-0.0099,-0.0065,-0.0041,0.0003,0.0005,0.0011,0.0001,0.005,0.0049,0.0048,-0.0012,-0.0018,-0.0024,0,0,0,0,0,0,-0.0213,-0.0191,-0.0172,-0.0182,-0.0169,-0.0139,-0.0143,-0.012,-0.0099,-0.0093,-0.0049,-0.0041,-0.0034,-0.0009,-0.0007,0.0006,0.0031,0.0031,-0.0016,-0.0022,-0.0027,-0.0029,0.003,0,0,0,0,0,-0.0223,-0.0227,-0.0202,-0.021,-0.0206,-0.0174,-0.0168,-0.0149,-0.0126,-0.0116,-0.0088,-0.0057,-0.0035,-0.0022,-0.0003,0.0002,0.0042,0.0,-0.0005,-0.0009,-0.0006,0.0043,0.0043,0.0045,0.0045,0.0045,0,0,-0.0237,-0.0227,-0.0228,-0.0218,-0.0202,-0.021,-0.0168,-0.0168,-0.0168,-0.0113,-0.0108,-0.0079,-0.0039,-0.0032,-0.0026,-0.0011,0.001,-0.001,-0.0015,-0.0009,0.0042,0.0042,0.0042,0.0044,0.0044,0.0044,0,0,-0.0279,-0.0261,-0.0281,-0.0276,-0.0263,-0.0241,-0.0244,-0.022,-0.0202,-0.0196,-0.0154,-0.013,-0.0103,-0.0072,-0.0052,-0.0074,-0.0023,-0.0069,-0.0092,-0.0045,-0.0044,-0.0043,0.0001,0.0006,-0.0067,-0.0067,-0.0067,0,-0.0298,-0.0319,-0.0288,-0.0309,-0.0308,-0.026,-0.0282,-0.0261,-0.0235,-0.0218,-0.0205,-0.0147,-0.0121,-0.009,-0.0097,-0.0086,-0.0048,-0.0074,-0.0051,-0.0049,-0.0047,-0.0002,0.0005,-0.007,-0.007,-0.007,-0.0069,0,-0.0354,-0.0371,-0.0386,-0.0389,-0.0383,-0.0397,-0.0362,-0.0351,-0.0321,-0.029,-0.0259,-0.0215,-0.0173,-0.0165,-0.0139,-0.0111,-0.0086,-0.0068,-0.0037,-0.0051,-0.0003,0.0005,-0.0075,-0.0074,-0.0073,-0.0072,0,0,-0.0392,-0.0421,-0.0425,-0.0443,-0.0428,-0.043,-0.0422,-0.0399,-0.0382,-0.0348,-0.0321,-0.0283,-0.0241,-0.0215,-0.0173,-0.0132,-0.0093,-0.0097,-0.0093,-0.0055,0.0015,0.004,0.0052,-0.0068,-0.0067,-0.0066,0.0041,0,-0.0446,-0.051,-0.0497,-0.0543,-0.0571,-0.0522,-0.0517,-0.0482,-0.0436,-0.0398,-0.0331,-0.0297,-0.0263,-0.0241,-0.0195,-0.0112,-0.0073,-0.0124,0.0026,0.003,0.0053,0.0061,0.003,0.0124,0.0049,0.0051,0.0052,0,-0.0503,-0.054,-0.0602,-0.0621,-0.0624,-0.0635,-0.0599,-0.0587,-0.051,-0.047,-0.0408,-0.0346,-0.0274,-0.025,-0.0113,-0.0144,-0.0075,-0.0014,-0.0008,0.0046,0.0071,0.0128,0.0142,0.0066,0.0065,0.0064,0.0063,0,-0.0552,-0.0606,-0.0659,-0.067,-0.0681,-0.0686,-0.0676,-0.0613,-0.0593,-0.051,-0.0472,-0.0375,-0.0315,-0.0217,-0.0088,-0.0097,0.0067,0.0072,0.0157,0.016,0.0179,0.0181,0.0155,0.0155,0.0155,0.0155,0.0154,0,-0.0614,-0.0655,-0.0692,-0.0726,-0.0773,-0.0745,-0.0757,-0.0721,-0.0657,-0.0623,-0.0515,-0.0455,-0.0303,-0.0186,-0.0086,0.0072,0.0072,0.0161,0.0193,0.0155,0.0153,0.014,0.0137,0.0159,0.0158,0.0157,0.0156,0,-0.066,-0.0687,-0.0757,-0.0793,-0.0806,-0.0836,-0.0832,-0.0827,-0.0748,-0.0695,-0.067,-0.0505,-0.0346,-0.0193,-0.0014,0.0081,0.0217,0.0264,0.0209,0.0232,0.0276,0.0268,0.0376,0.0378,0.0379,0.038,0.0382,0,-0.0693,-0.0736,-0.0815,-0.0863,-0.0887,-0.0923,-0.0941,-0.0889,-0.0872,-0.0721,-0.0697,-0.0521,-0.0401,-0.0116,0.0077,0.0267,0.026,0.0353,0.0326,0.0281,0.0301,0.029,0.028,0.0325,0.0326,0.0326,0.0326,0,-0.0753,-0.0779,-0.0835,-0.0937,-0.0987,-0.1033,-0.1049,-0.1049,-0.0957,-0.0893,-0.0763,-0.0651,-0.0348,-0.0123,0.0143,0.0249,0.0322,0.0369,0.0355,0.0268,0.024,0.0257,0.0248,0.033,0.033,0.033,0.0329,0.0329,-0.0788,-0.0843,-0.0918,-0.1006,-0.1067,-0.1118,-0.1148,-0.1133,-0.1103,-0.0992,-0.0856,-0.0676,-0.0399,-0.0044,0.0177,0.0385,0.037,0.0416,0.0411,0.0407,0.0376,0.0352,0.0458,0.0458,0.0459,0.0459,0.0459,0,-0.0831,-0.0892,-0.0981,-0.1078,-0.1142,-0.1163,-0.1197,-0.1196,-0.1166,-0.107,-0.0951,-0.0657,-0.0371,-0.0087,0.0243,0.0446,0.0429,0.0477,0.0416,0.0411,0.0406,0.0373,0.0455,0.0456,0.0457,0.0457,0,0,-0.0858,-0.0947,-0.0993,-0.1113,-0.1175,-0.1242,-0.1264,-0.1246,-0.1195,-0.1116,-0.0996,-0.08,-0.0418,-0.0183,0.0095,0.0278,0.028,0.0291,0.027,0.0159,0.0152,0.0349,0.0289,0,0,0,0,0]}],[{"header":{"parameterUnit":"m.s-1","parameterCategory":2,"la1":30.2991,"la2":30.254,"lo1":-89.0895,"lo2":-89.0444,"dy":0.0017,"dx":0.0017,"nx":28,"ny":28,"refTime":"2025-03-02T09:00:00:Z","depth":"4","parameterNumber":2,"parameterNumberName":"U-component_of_CURRENTS"},"data":[0,0,0,0,0,0,0,0,0,0,0,0,0,0,0,0,0,0,0,0,0,0,0,0,0,0,0,0,0,0,0,0,0,0,0,0,0,0,0,0,0,0,0,0,0,0,0,0,0,0,0,0,0,0,0,0,0,0,-0.1502,-0.1502,0,-0.1473,-0.1473,-0.1472,-0.1446,-0.1446,-0.1446,-0.1446,-0.1537,-0.1539,-0.1541,0,0,0,0,0,0,0,0,0,0,0,0,0,-0.1425,-0.1427,-0.1502,-0.1502,-0.1502,-0.1474,-0.1473,-0.1472,-0.1446,-0.1446,-0.1446,-0.1446,-0.1536,-0.1539,-0.1542,0,0,0,0,0,0,0,0,0,0,0,0,0,-0.143,-0.1428,-0.1502,-0.1489,-0.1488,-0.1474,-0.1473,-0.1472,-0.1446,-0.1446,-0.1446,-0.1446,-0.1535,-0.1539,-0.1542,-0.156,0,0,-0.1552,-0.1554,0,0,0,0,0,0,0,0,-0.143,-0.1432,-0.1491,-0.149,-0.1489,-0.1468,-0.1479,-0.1509,-0.1446,-0.1456,-0.1446,-0.1446,-0.1528,-0.1532,-0.1517,-0.1564,-0.1568,-0.1553,-0.1555,-0.1556,-0.1557,0,0,0,0,0,0,0,-0.1429,-0.1432,-0.1485,-0.1491,-0.149,-0.1448,-0.145,-0.1483,-0.149,-0.1455,-0.1455,-0.1459,-0.1527,-0.1514,-0.152,-0.1569,-0.1553,-0.1556,-0.1558,-0.1559,-0.1741,-0.1743,0,0,0,0,0,0,-0.1449,-0.1433,-0.1486,-0.1485,-0.1464,-0.145,-0.1451,-0.147,-0.1487,-0.149,-0.1459,-0.1458,-0.1508,-0.1516,-0.1523,-0.1626,-0.1556,-0.156,-0.1562,-0.1738,-0.1741,-0.1744,0,0,0,0,0,0,-0.1447,-0.1454,-0.1488,-0.1461,-0.1463,-0.1453,-0.1473,-0.147,-0.1479,-0.1489,-0.1494,-0.1476,-0.1508,-0.1518,-0.1569,-0.1627,-0.1561,-0.1564,-0.1735,-0.1739,-0.1743,-0.1782,0,0,0,0,0,0,-0.1445,-0.1454,-0.1479,-0.1463,-0.1466,-0.1488,-0.1473,-0.1469,-0.1483,-0.1482,-0.1505,-0.1512,-0.1509,-0.1564,-0.1572,-0.1631,-0.1567,-0.1731,-0.1737,-0.1741,-0.1777,-0.1787,-0.1795,0,0,0,0,0,-0.1443,-0.1471,-0.1481,-0.1487,-0.1499,-0.1489,-0.1486,-0.1474,-0.1484,-0.1485,-0.1508,-0.1512,-0.1604,-0.1568,-0.1577,-0.1638,-0.1729,-0.1735,-0.1741,-0.1773,-0.1785,-0.1795,0,0,0,0,0,0,-0.1443,-0.1471,-0.1481,-0.1516,-0.1511,-0.1487,-0.1498,-0.1493,-0.1507,-0.1526,-0.1531,-0.1539,-0.1613,-0.1622,-0.1582,-0.171,-0.1675,-0.1683,-0.1697,-0.1708,-0.1717,-0.1707,-0.157,0,0,0,0,0,-0.146,-0.1493,-0.1498,-0.1524,-0.1535,-0.1525,-0.1525,-0.152,-0.1528,-0.1534,-0.1553,-0.1594,-0.1643,-0.1669,-0.1706,-0.1764,-0.1732,-0.1818,-0.1827,-0.1835,-0.1837,-0.1859,-0.1869,-0.1764,-0.1764,-0.1764,0,0,-0.1465,-0.1487,-0.1504,-0.1527,-0.1531,-0.1536,-0.1525,-0.1539,-0.1551,-0.1548,-0.159,-0.1628,-0.1667,-0.1731,-0.1768,-0.1746,-0.1836,-0.1843,-0.1848,-0.1846,-0.1866,-0.1876,-0.1884,-0.1769,-0.1768,-0.1767,0,0,-0.148,-0.1519,-0.1547,-0.1548,-0.1568,-0.1564,-0.1578,-0.158,-0.1597,-0.164,-0.1653,-0.1713,-0.178,-0.1805,-0.1833,-0.1918,-0.1886,-0.1957,-0.1991,-0.2012,-0.202,-0.2027,-0.1934,-0.1932,-0.1958,-0.1958,-0.1958,0,-0.1486,-0.1517,-0.1547,-0.1563,-0.1563,-0.1583,-0.1589,-0.1611,-0.1627,-0.1653,-0.1669,-0.1797,-0.1814,-0.1903,-0.1923,-0.1938,-0.191,-0.1939,-0.202,-0.2027,-0.2033,-0.1936,-0.1934,-0.1961,-0.1961,-0.196,-0.196,0,-0.1502,-0.1529,-0.1545,-0.1577,-0.1585,-0.1592,-0.1623,-0.1654,-0.1695,-0.1716,-0.183,-0.1878,-0.1953,-0.1981,-0.1971,-0.2049,-0.1996,-0.2026,-0.198,-0.2045,-0.1939,-0.1936,-0.1965,-0.1964,-0.1963,-0.1962,0,0,-0.1497,-0.1547,-0.1553,-0.1555,-0.1589,-0.1586,-0.1641,-0.1677,-0.1713,-0.1804,-0.185,-0.1974,-0.2029,-0.2065,-0.2099,-0.211,-0.2089,-0.2085,-0.2085,-0.1968,-0.2059,-0.1989,-0.1977,-0.2144,-0.2146,-0.2147,-0.1942,0,-0.1492,-0.1519,-0.1547,-0.1554,-0.156,-0.1593,-0.1636,-0.1683,-0.1738,-0.1787,-0.1905,-0.2003,-0.2061,-0.2126,-0.2149,-0.2142,-0.2095,-0.2136,-0.2036,-0.203,-0.1944,-0.1978,-0.2152,-0.1939,-0.1938,-0.1937,-0.1937,0,-0.1488,-0.1502,-0.1522,-0.1539,-0.1549,-0.1562,-0.1612,-0.1656,-0.1748,-0.1808,-0.1942,-0.2037,-0.2148,-0.2155,-0.2197,-0.2233,-0.2132,-0.209,-0.2082,-0.2007,-0.1959,-0.1882,-0.1929,-0.193,-0.1931,-0.1931,-0.1931,0,-0.1451,-0.1473,-0.1489,-0.149,-0.1532,-0.1551,-0.1581,-0.1665,-0.1694,-0.1844,-0.1894,-0.2069,-0.2143,-0.2167,-0.2156,-0.2184,-0.2094,-0.2122,-0.1932,-0.1921,-0.2021,-0.2017,-0.2046,-0.2046,-0.2047,-0.2047,-0.2048,0,-0.1416,-0.1421,-0.1471,-0.1472,-0.1477,-0.1529,-0.1561,-0.1623,-0.1689,-0.1696,-0.193,-0.1966,-0.2154,-0.2155,-0.2125,-0.2036,-0.2093,-0.1925,-0.189,-0.2032,-0.2033,-0.2012,-0.2011,-0.2039,-0.2041,-0.2043,-0.2044,0,-0.1371,-0.1413,-0.1418,-0.1458,-0.1464,-0.1475,-0.1505,-0.1518,-0.1643,-0.1646,-0.1719,-0.1878,-0.1958,-0.205,-0.2015,-0.1973,-0.1908,-0.1804,-0.1873,-0.1846,-0.1699,-0.1702,-0.1617,-0.1613,-0.161,-0.1607,-0.1605,0,-0.1344,-0.1356,-0.1396,-0.1385,-0.1397,-0.1415,-0.1418,-0.1491,-0.1474,-0.1557,-0.1523,-0.1655,-0.1755,-0.1687,-0.1785,-0.1762,-0.1723,-0.1645,-0.1759,-0.1693,-0.1667,-0.1676,-0.1683,-0.16,-0.16,-0.1599,-0.1598,0,-0.128,-0.1327,-0.1343,-0.1333,-0.1317,-0.1284,-0.127,-0.1234,-0.129,-0.1389,-0.137,-0.1451,-0.147,-0.1586,-0.1578,-0.1543,-0.1741,-0.1614,-0.1621,-0.1727,-0.1673,-0.1652,-0.1663,-0.1588,-0.1589,-0.159,-0.1591,0,-0.1239,-0.124,-0.1282,-0.1249,-0.1238,-0.1149,-0.1152,-0.111,-0.1113,-0.1183,-0.1128,-0.1285,-0.1383,-0.145,-0.1426,-0.1465,-0.1465,-0.1431,-0.1448,-0.146,-0.153,-0.1446,-0.1251,0,0,0,0,0,-0.1172,-0.1171,-0.1167,-0.1137,-0.113,-0.1104,-0.1048,-0.1051,-0.1059,-0.1011,-0.1074,-0.111,-0.1191,-0.1268,-0.1287,-0.1357,-0.1463,-0.137,-0.143,-0.153,-0.1542,-0.1654,0,0,0,0,0,0,-0.1124,-0.1146,-0.1149,-0.1057,-0.1018,-0.0972,-0.093,-0.0924,-0.0906,-0.0949,-0.1024,-0.1072,-0.1196,-0.1209,-0.129,-0.1306,-0.1323,-0.1446,-0.1443,-0.1523,-0.1534,-0.1544,-0.1663,0,0,0,0,0]},{"header":{"parameterUnit":"m.s-1","parameterCategory":2,"la1":30.2991,"la2":30.254,"lo1":-89.0895,"lo2":-89.0444,"dy":0.0017,"dx":0.0017,"nx":28,"ny":28,"refTime":"2025-03-02T09:00:00:Z","depth":"4","parameterNumber":3,"parameterNumberName":"V-component_of_CURRENTS"},"data":[0,0,0,0,0,0,0,0,0,0,0,0,0,0,0,0,0,0,0,0,0,0,0,0,0,0,0,0,0,0,0,0,0,0,0,0,0,0,0,0,0,0,0,0,0,0,0,0,0,0,0,0,0,0,0,0,0,0,-0.0066,-0.0065,0,-0.0014,-0.0014,-0.0013,0.0038,0.0038,0.0039,0.0039,0.0099,0.01,0.0101,0,0,0,0,0,0,0,0,0,0,0,0,0,-0.0087,-0.0087,-0.0066,-0.0065,-0.0065,-0.0015,-0.0014,-0.0013,0.0038,0.0038,0.0039,0.004,0.0099,0.01,0.0101,0,0,0,0,0,0,0,0,0,0,0,0,0,-0.006,-0.0087,-0.0066,-0.0034,-0.0031,-0.0015,-0.0014,-0.0013,0.0038,0.0038,0.0039,0.004,0.0098,0.01,0.0101,0.0095,0,0,0.0106,0.0107,0,0,0,0,0,0,0,0,-0.0061,-0.0059,-0.004,-0.0037,-0.0033,0.0005,0.0001,0.0023,0.0037,0.0013,0.0039,0.004,0.0067,0.0071,0.0081,0.0097,0.01,0.0106,0.0107,0.0108,0.0108,0,0,0,0,0,0,0,-0.0063,-0.006,-0.0044,-0.0039,-0.0035,-0.0011,-0.0007,0.0005,0.0036,0.0015,0.0019,0.0022,0.0069,0.0079,0.0082,0.0101,0.0106,0.0108,0.0109,0.0109,0.0127,0.0127,0,0,0,0,0,0,-0.0075,-0.0063,-0.0046,-0.0043,-0.0047,-0.0012,-0.0007,-0.0007,0.0036,0.0042,0.0021,0.0024,0.0076,0.008,0.0085,0.007,0.0108,0.011,0.011,0.0128,0.0127,0.0127,0,0,0,0,0,0,-0.0076,-0.0074,-0.0048,-0.0052,-0.0047,-0.0013,-0.0013,-0.0006,0.0004,0.004,0.0047,0.0025,0.0077,0.0082,0.0092,0.0073,0.011,0.0112,0.0128,0.0128,0.0127,0.0046,0,0,0,0,0,0,-0.0076,-0.0075,-0.0081,-0.0053,-0.0048,-0.0048,-0.0014,-0.0006,0.0005,0.0009,0.0045,0.0052,0.0078,0.0089,0.0094,0.0076,0.0113,0.0129,0.0128,0.0127,0.005,0.0043,0.0037,0,0,0,0,0,-0.0077,-0.0095,-0.0082,-0.008,-0.0057,-0.0049,-0.0044,-0.0015,0.0004,-0.0,0.0027,0.0051,0.0087,0.009,0.0095,0.0077,0.0129,0.0128,0.0127,0.0053,0.0044,0.0038,0,0,0,0,0,0,-0.0107,-0.009,-0.0076,-0.0086,-0.0072,-0.0041,-0.0044,-0.0022,-0.0002,0.0003,0.0041,0.0049,0.0049,0.0076,0.0079,0.0082,0.0113,0.0113,0.0055,0.0047,0.0041,0.0033,0.0114,0,0,0,0,0,-0.0118,-0.0124,-0.0102,-0.011,-0.0107,-0.0076,-0.0069,-0.0049,-0.0028,-0.0018,0.0008,0.0034,0.0048,0.0058,0.0074,0.0074,0.0105,0.0069,0.0063,0.0057,0.0055,0.0093,0.009,0.0123,0.0123,0.0123,0,0,-0.013,-0.0123,-0.0125,-0.0117,-0.0102,-0.011,-0.0069,-0.0066,-0.0071,-0.0016,-0.0018,0.0009,0.0042,0.0041,0.0044,0.0063,0.006,0.0056,0.005,0.0051,0.0091,0.0088,0.0085,0.0122,0.0123,0.0123,0,0,-0.0165,-0.0154,-0.0173,-0.0167,-0.0154,-0.0138,-0.0141,-0.0115,-0.0104,-0.0101,-0.0065,-0.0048,-0.0025,-0.0005,0.0008,-0.0021,0.0022,-0.0014,-0.005,-0.0014,-0.0016,-0.0018,-0.0003,-0.0003,-0.0013,-0.0013,-0.0013,0,-0.018,-0.0199,-0.0177,-0.0194,-0.0196,-0.0156,-0.0177,-0.0164,-0.0138,-0.0137,-0.0113,-0.0073,-0.0049,-0.0043,-0.0053,-0.0038,-0.0011,-0.0028,-0.0022,-0.0023,-0.0024,-0.0008,-0.0007,-0.0017,-0.0017,-0.0016,-0.0016,0,-0.0225,-0.0241,-0.0253,-0.0262,-0.0263,-0.0273,-0.0255,-0.0256,-0.0235,-0.0216,-0.0204,-0.0158,-0.0127,-0.0122,-0.0098,-0.0092,-0.0072,-0.004,-0.0007,-0.0032,-0.0014,-0.0011,-0.0023,-0.0021,-0.002,-0.0019,0,0,-0.0257,-0.0281,-0.0285,-0.0303,-0.0299,-0.0305,-0.0324,-0.0327,-0.034,-0.03,-0.0309,-0.027,-0.0225,-0.0206,-0.0163,-0.0133,-0.0125,-0.0092,-0.0088,-0.0084,-0.0057,-0.0028,-0.0022,-0.0086,-0.0086,-0.0085,-0.0051,0,-0.0298,-0.0348,-0.0347,-0.0391,-0.0414,-0.0395,-0.0418,-0.0414,-0.0399,-0.04,-0.0341,-0.0324,-0.0261,-0.0241,-0.0203,-0.0126,-0.0118,-0.0139,-0.0027,-0.0024,0.0,-0.0017,-0.0084,-0.0048,-0.0048,-0.0047,-0.0047,0,-0.0341,-0.0368,-0.0424,-0.046,-0.0469,-0.049,-0.0515,-0.0529,-0.0519,-0.0504,-0.0461,-0.0405,-0.0338,-0.0296,-0.017,-0.0179,-0.0139,-0.009,-0.0086,-0.0026,0.0011,-0.001,-0.0041,-0.0041,-0.0042,-0.0042,-0.0042,0,-0.0374,-0.0422,-0.047,-0.0481,-0.0516,-0.0541,-0.0557,-0.0562,-0.058,-0.0559,-0.0564,-0.0459,-0.0404,-0.0308,-0.0174,-0.0171,-0.0055,-0.0035,0.0013,0.0015,0.0014,0.0016,-0.0003,-0.0003,-0.0003,-0.0004,-0.0004,0,-0.0415,-0.0453,-0.0491,-0.0518,-0.0576,-0.0583,-0.0637,-0.0641,-0.0653,-0.0662,-0.0609,-0.0577,-0.0402,-0.0304,-0.0201,-0.006,-0.0063,0.0001,0.0029,-0.0024,-0.0027,0.0014,0.0016,-0.0002,-0.0003,-0.0003,-0.0003,0,-0.0444,-0.0469,-0.0528,-0.0578,-0.0596,-0.0635,-0.0686,-0.0715,-0.0728,-0.074,-0.0729,-0.0643,-0.049,-0.0345,-0.0176,-0.0089,0.0032,0.0054,-0.0026,-0.0001,0.0072,0.0069,0.0119,0.012,0.0121,0.0122,0.0123,0,-0.0463,-0.0498,-0.057,-0.0603,-0.0629,-0.0685,-0.0719,-0.0743,-0.076,-0.076,-0.0757,-0.0649,-0.0565,-0.0321,-0.0159,0.0032,0.0043,0.0091,0.0087,0.0063,0.0086,0.0082,0.0077,0.0125,0.0125,0.0126,0.0126,0,-0.0498,-0.0527,-0.0574,-0.0647,-0.0692,-0.0735,-0.0777,-0.0795,-0.0802,-0.0824,-0.0757,-0.0643,-0.0501,-0.0294,-0.0154,-0.0019,0.0077,0.0104,0.0102,0.0098,0.0072,0.0092,0.0087,0.013,0.0129,0.0129,0.0129,0,-0.0519,-0.056,-0.0626,-0.0684,-0.0738,-0.0761,-0.0784,-0.0786,-0.0803,-0.0791,-0.0747,-0.0627,-0.0529,-0.0324,-0.018,-0.004,-0.0016,0.0019,0.0022,0.0019,-0.0008,-0.0055,-0.0016,0,0,0,0,0,-0.0533,-0.0586,-0.0653,-0.0716,-0.0764,-0.0792,-0.0811,-0.082,-0.0824,-0.0774,-0.0763,-0.0628,-0.0418,-0.0336,-0.0191,-0.0162,0.0007,0.0011,0.0049,0.0153,0.0148,0.0138,0,0,0,0,0,0,-0.0548,-0.0619,-0.0661,-0.0725,-0.0769,-0.0814,-0.0822,-0.0817,-0.0786,-0.0771,-0.0658,-0.061,-0.0405,-0.0509,-0.0199,-0.0159,-0.0116,0.0103,0.0106,0.0155,0.0151,0.0147,0.0135,0,0,0,0,0]}]]